Weather History for Windom, MN

Change the Weather History Date:

Saturday, October 12, 2013

  Actual Average Record
Temperature  
Mean Temperature 50 °F -  
Max Temperature 62 °F 62 °F 87 °F (1975)
Min Temperature 37 °F 36 °F 19 °F (2012)
Degree Days  
Heating Degree Days 14    
Moisture  
Dew Point 34 °F    
Average Humidity 58    
Maximum Humidity 82    
Minimum Humidity 22    
Precipitation  
Precipitation 0.00 in - - ()
Sea Level Pressure  
Sea Level Pressure 29.99 in    
Wind  
Wind Speed 14 mph (WSW)    
Max Wind Speed 25 mph    
Max Gust Speed 33 mph    
Visibility 10 miles    
Events      
Averages and records for this station are not official NWS values.
T = Trace of Precipitation, MM = Missing Value Source: NWS Daily Summary

Daily Weather History Graph

Daily Weather History Graph

Search for Another Location

Airport:

Trip Planner

Search our weather history database for the weather conditions in past years. The results will help you decide how hot, cold, wet, or windy it might be!

Date:

Astronomy

Oct. 12, 2013 Rise Set
Actual Time 7:31 AM CDT 6:41 PM CDT
Civil Twilight 7:02 AM CDT 7:10 PM CDT
Nautical Twilight 6:29 AM CDT 7:43 PM CDT
Astronomical Twilight 5:55 AM CDT 8:16 PM CDT
Moon 3:03 PM CDT (10/12) 12:23 AM CDT (10/12)
Length of Visible Light 12h 07m
Length of Day
11h 09m
First Quarter, 59% of the Moon is Illuminated
Oct 12
First Quarter
Oct 18
Full
Oct 26
Last Quarter
Nov 3
New
Nov 9
First Quarter

Hourly Weather History & Observations

Time (CDT) Temp. Windchill Dew Point Humidity Pressure Visibility Wind Dir Wind Speed Gust Speed Precip Events Conditions
12:12 AM 50.0 °F - 42.8 °F 76% 29.77 in 10.0 mi WSW 15.0 mph 21.9 mph N/A   Clear
12:32 AM 50.0 °F - 42.8 °F 76% 29.77 in 10.0 mi WSW 15.0 mph 21.9 mph N/A   Clear
12:53 AM 50.0 °F - 42.8 °F 76% 29.77 in 10.0 mi SW 15.0 mph 19.6 mph N/A   Clear
1:12 AM 50.0 °F - 42.8 °F 76% 29.78 in 10.0 mi WSW 12.7 mph 19.6 mph N/A   Clear
1:32 AM 48.2 °F - 42.8 °F 82% 29.79 in 10.0 mi SW 13.8 mph - N/A   Clear
1:53 AM 48.2 °F - 42.8 °F 82% 29.80 in 10.0 mi SW 15.0 mph 20.7 mph N/A   Clear
2:12 AM 48.2 °F - 41.0 °F 76% 29.81 in 10.0 mi SW 15.0 mph - N/A   Clear
2:32 AM 48.2 °F - 41.0 °F 76% 29.81 in 10.0 mi WSW 11.5 mph - N/A   Clear
2:53 AM 48.2 °F - 41.0 °F 76% 29.82 in 10.0 mi SW 10.4 mph - N/A   Clear
3:12 AM 48.2 °F - 41.0 °F 76% 29.83 in 10.0 mi SW 10.4 mph - N/A   Clear
3:32 AM 46.4 °F 41.5 °F 41.0 °F 81% 29.83 in 10.0 mi SSW 10.4 mph - N/A   Clear
3:53 AM 46.4 °F 41.5 °F 41.0 °F 81% 29.83 in 10.0 mi SW 10.4 mph - N/A   Clear
4:12 AM 46.4 °F 41.9 °F 41.0 °F 81% 29.84 in 10.0 mi SW 9.2 mph - N/A   Scattered Clouds
4:32 AM 46.4 °F 41.9 °F 41.0 °F 81% 29.85 in 10.0 mi SSW 9.2 mph - N/A   Scattered Clouds
4:53 AM 46.4 °F 41.9 °F 39.2 °F 76% 29.85 in 10.0 mi SSW 9.2 mph - N/A   Clear
5:12 AM 44.6 °F 39.7 °F 39.2 °F 81% 29.86 in 10.0 mi SSW 9.2 mph - N/A   Clear
5:32 AM 44.6 °F 39.7 °F 39.2 °F 81% 29.86 in 10.0 mi SW 9.2 mph - N/A   Clear
5:53 AM 44.6 °F 40.2 °F 39.2 °F 81% 29.87 in 10.0 mi SSW 8.1 mph - N/A   Clear
6:12 AM 44.6 °F 38.8 °F 39.2 °F 81% 29.87 in 10.0 mi SW 11.5 mph - N/A   Clear
6:32 AM 46.4 °F 40.4 °F 39.2 °F 76% 29.88 in 10.0 mi SW 13.8 mph - N/A   Clear
6:53 AM 46.4 °F 40.7 °F 39.2 °F 76% 29.88 in 10.0 mi SW 12.7 mph 18.4 mph N/A   Clear
7:12 AM 44.6 °F 37.4 °F 37.4 °F 76% 29.89 in 10.0 mi SW 16.1 mph - N/A   Clear
7:32 AM 44.6 °F 38.4 °F 37.4 °F 76% 29.90 in 10.0 mi SW 12.7 mph 20.7 mph N/A   Clear
7:53 AM 44.6 °F 37.8 °F 39.2 °F 81% 29.91 in 10.0 mi SW 15.0 mph - N/A   Clear
8:12 AM 44.6 °F 38.1 °F 37.4 °F 76% 29.91 in 10.0 mi SW 13.8 mph - N/A   Clear
8:32 AM 46.4 °F 40.4 °F 39.2 °F 76% 29.92 in 10.0 mi SW 13.8 mph 19.6 mph N/A   Clear
8:52 AM 46.4 °F 40.4 °F 37.4 °F 71% 29.93 in 10.0 mi SW 13.8 mph 20.7 mph N/A   Clear
9:12 AM 48.2 °F - 37.4 °F 66% 29.94 in 10.0 mi WSW 16.1 mph 21.9 mph N/A   Clear
9:33 AM 50.0 °F - 37.4 °F 62% 29.94 in 10.0 mi SW 16.1 mph - N/A   Clear
9:52 AM 51.8 °F - 37.4 °F 58% 29.94 in 10.0 mi WSW 21.9 mph - N/A   Clear
10:12 AM 53.6 °F - 37.4 °F 54% 29.95 in 10.0 mi WSW 17.3 mph 23.0 mph N/A   Clear
10:33 AM 53.6 °F - 35.6 °F 51% 29.95 in 10.0 mi WSW 25.3 mph 33.4 mph N/A   Clear
10:52 AM 55.4 °F - 35.6 °F 47% 29.96 in 10.0 mi WSW 23.0 mph - N/A   Clear
11:12 AM 55.4 °F - 35.6 °F 47% 29.97 in 10.0 mi West 21.9 mph 29.9 mph N/A   Clear
11:33 AM 57.2 °F - 35.6 °F 44% 29.98 in 10.0 mi West 21.9 mph 31.1 mph N/A   Scattered Clouds
11:52 AM 57.2 °F - 35.6 °F 44% 29.99 in 10.0 mi WSW 18.4 mph 29.9 mph N/A   Mostly Cloudy
12:12 PM 57.2 °F - 33.8 °F 41% 29.99 in 10.0 mi West 24.2 mph 32.2 mph N/A   Overcast
12:33 PM 59.0 °F - 33.8 °F 39% 30.00 in 10.0 mi West 23.0 mph 29.9 mph N/A   Scattered Clouds
12:52 PM 59.0 °F - 33.8 °F 39% 30.01 in 10.0 mi West 24.2 mph 31.1 mph N/A   Clear
1:12 PM 60.8 °F - 33.8 °F 36% 30.01 in 10.0 mi West 21.9 mph 31.1 mph N/A   Scattered Clouds
1:33 PM 60.8 °F - 33.8 °F 36% 30.01 in 10.0 mi West 23.0 mph 29.9 mph N/A   Scattered Clouds
1:52 PM 60.8 °F - 30.2 °F 31% 30.01 in 10.0 mi West 19.6 mph 29.9 mph N/A   Clear
2:12 PM 60.8 °F - 32.0 °F 34% 30.01 in 10.0 mi West 17.3 mph 26.5 mph N/A   Clear
2:33 PM 62.6 °F - 30.2 °F 30% 30.02 in 10.0 mi West 21.9 mph 32.2 mph N/A   Clear
2:52 PM 62.6 °F - 28.4 °F 27% 30.02 in 10.0 mi West 25.3 mph 29.9 mph N/A   Clear
3:12 PM 62.6 °F - 26.6 °F 26% 30.02 in 10.0 mi West 20.7 mph 33.4 mph N/A   Clear
3:33 PM 62.6 °F - 26.6 °F 26% 30.03 in 10.0 mi West 25.3 mph 29.9 mph N/A   Clear
3:52 PM 60.8 °F - 21.2 °F 22% 30.04 in 10.0 mi West 23.0 mph 33.4 mph N/A   Clear
4:12 PM 60.8 °F - 23.0 °F 23% 30.04 in 10.0 mi West 25.3 mph 33.4 mph N/A   Clear
4:33 PM 60.8 °F - 21.2 °F 22% 30.05 in 10.0 mi West 21.9 mph 33.4 mph N/A   Clear
4:52 PM 60.8 °F - 21.2 °F 22% 30.05 in 10.0 mi West 23.0 mph 32.2 mph N/A   Clear
5:12 PM 60.8 °F - 24.8 °F 25% 30.06 in 10.0 mi West 24.2 mph 33.4 mph N/A   Clear
5:33 PM 59.0 °F - 23.0 °F 25% 30.07 in 10.0 mi West 21.9 mph 26.5 mph N/A   Clear
5:52 PM 59.0 °F - 24.8 °F 27% 30.08 in 10.0 mi West 17.3 mph - N/A   Clear
6:13 PM 57.2 °F - 24.8 °F 29% 30.10 in 10.0 mi West 15.0 mph 25.3 mph N/A   Clear
6:33 PM 55.4 °F - 26.6 °F 33% 30.10 in 10.0 mi West 10.4 mph - N/A   Clear
6:52 PM 51.8 °F - 28.4 °F 41% 30.12 in 10.0 mi West 8.1 mph - N/A   Clear
7:12 PM 51.8 °F - 28.4 °F 41% 30.13 in 10.0 mi West 6.9 mph - N/A   Clear
7:33 PM 48.2 °F - 28.4 °F 46% 30.14 in 10.0 mi West 5.8 mph - N/A   Clear
7:52 PM 46.4 °F 42.9 °F 30.2 °F 53% 30.15 in 10.0 mi WSW 6.9 mph - N/A   Clear
8:12 PM 44.6 °F 40.7 °F 30.2 °F 57% 30.16 in 10.0 mi WSW 6.9 mph - N/A   Clear
8:33 PM 42.8 °F 41.1 °F 30.2 °F 61% 30.17 in 10.0 mi West 3.5 mph - N/A   Clear
8:52 PM 42.8 °F 39.3 °F 30.2 °F 61% 30.17 in 10.0 mi West 5.8 mph - N/A   Clear
9:12 PM 42.8 °F 39.3 °F 30.2 °F 61% 30.18 in 10.0 mi West 5.8 mph - N/A   Clear
9:33 PM 41.0 °F 36.4 °F 30.2 °F 65% 30.18 in 10.0 mi West 6.9 mph - N/A   Clear
9:52 PM 41.0 °F 36.4 °F 30.2 °F 65% 30.19 in 10.0 mi West 6.9 mph - N/A   Clear
10:12 PM 39.2 °F 34.2 °F 30.2 °F 70% 30.21 in 10.0 mi West 6.9 mph - N/A   Clear
10:33 PM 39.2 °F 33.6 °F 30.2 °F 70% 30.21 in 10.0 mi West 8.1 mph - N/A   Clear
10:52 PM 41.0 °F 37.1 °F 30.2 °F 65% 30.22 in 10.0 mi West 5.8 mph - N/A   Clear
11:13 PM 39.2 °F 35.9 °F 30.2 °F 70% 30.23 in 10.0 mi West 4.6 mph - N/A   Clear
11:32 PM 39.2 °F 35.0 °F 30.2 °F 70% 30.24 in 10.0 mi WSW 5.8 mph - N/A   Clear
11:52 PM 37.4 °F 31.4 °F 30.2 °F 75% 30.25 in 10.0 mi WSW 8.1 mph - N/A   Clear